Location: Walnut Street Observatory
(41.0583°N, 76.2295°W)
Time: 23:12:02
(UTC-04:00)

Daily predictions for brighter satellites

Satellite Brightness Start Highest point End
(mag) Time Altitude Azimuth Time Altitude Azimuth Time Altitude Azimuth
OAO 3 Rocket 4.0 19:09:54 10° WSW 19:14:20 40° S 19:18:49 10° ESE
Cosmos 1452 Rocket 3.8 19:09:54 10° N 19:14:58 46° ENE 19:19:58 10° SE
MSX 4.0 19:09:57 10° SSE 19:15:41 81° WSW 19:21:29 10° NNW
Cosmos 2034 Rocket 4.4 19:12:54 10° SSE 19:18:42 42° E 19:24:36 10° NNE
Cosmos 1464 Rocket 4.1 19:13:04 10° SSE 19:19:08 57° E 19:25:10 10° NNE
DMSP B5D1-3 4.5 19:17:32 10° NNE 19:22:39 75° ESE 19:27:44 10° S
Cosmos 2333 Rocket 4.2 19:18:20 10° WSW 19:23:23 31° NW 19:28:28 10° N
CZ-4C R/B 3.9 19:22:33 10° WSW 19:27:25 32° NW 19:32:50 10° NNE
Cosmos 1674 4.3 19:26:09 10° NNE 19:28:44 17° ENE 19:31:18 10° ESE
CENTAUR R/B 3.4 19:25:21 10° SSE 19:30:01 24° ESE 19:35:04 10° ENE
ATLAS CENTAUR R/B 3.5 19:27:08 10° SW 19:31:50 81° SE 19:47:00 10° NE
SKYMED 2 4.1 19:28:00 10° N 19:32:18 64° WNW 19:36:35 10° SSW
SJ-6B 2.8 19:28:51 10° SSE 19:32:49 68° ENE 19:36:53 10° N
Cosmos 1408 Rocket 3.5 19:29:07 10° N 19:33:26 61° E 19:37:41 10° SSE
Cosmos 724 4.3 19:30:15 10° SSW 19:36:04 64° ESE 19:42:05 10° NE
ATLAS 5 CENTAUR R/B 1.9 19:32:16 10° SW 19:37:03 87° NW 19:42:14 10° NE
NOSS 3-2 (C) 3.7 19:34:31 10° SW 19:40:36 79° NW 19:47:16 10° NNE
Cosmos 2237 Rocket 4.4 19:36:53 10° WSW 19:41:35 26° NW 19:46:19 10° N
Cosmos 1484 Rocket 4.1 19:40:02 10° S 19:43:41 43° W 19:47:27 10° NNW
ALOS 3.1 19:42:24 10° SE 19:46:28 31° ENE 19:50:33 10° N
Cosmos 1758 3.3 19:43:02 10° S 19:47:05 69° E 19:51:11 10° NNE
Helios 1A 3.2 19:46:29 10° SSE 19:50:33 51° ENE 19:54:40 10° N
Spot 2 Rocket 3.5 19:45:53 10° SSE 19:50:51 63° ENE 19:55:50 10° N
ISS -3.0 19:49:58 10° SSW 19:53:06 45° SE 19:54:43 23° ENE
Cosmos 1048 Rocket 4.2 19:49:03 10° S 19:54:07 47° ESE 19:59:07 10° NNE
Cosmos 1544 3.1 19:53:01 10° S 19:56:41 57° E 20:00:22 10° NNE
Cosmos 1269 Rocket 4.0 19:51:52 10° S 19:57:02 59° ESE 20:02:14 10° NNE
METEOR-M 4.1 19:53:49 10° SSE 19:59:10 84° ENE 20:04:34 10° NNW
Resurs 1-3 3.6 19:55:52 10° SSE 20:00:10 57° ENE 20:04:29 10° N
SL-8 R/B 3.6 19:56:10 10° SW 20:00:56 73° SSE 20:04:21 19° ENE
Meteor 1-21 Rocket 4.1 19:56:05 10° N 20:01:40 79° E 20:07:11 10° SSE
SL-16 R/B 3.7 19:57:46 10° SW 20:03:02 38° WNW 20:08:20 10° N
Cosmos 1743 Rocket 3.5 19:59:02 10° N 20:03:27 61° E 20:07:47 10° SSE
Resurs 01 Rocket 1.6 20:01:21 10° SSE 20:05:48 86° ENE 20:10:16 10° NNW
HJ-1C 3.5 20:06:16 10° S 20:09:36 75° WSW 20:12:59 10° NNW
Cosmos 158 Rocket 4.2 20:08:20 10° S 20:12:51 39° ESE 20:17:22 10° NE
USA 215 3.2 20:07:11 10° NE 20:13:43 69° SE 20:20:12 10° SW
FENGYUN 3A 3.7 20:10:01 10° SSE 20:15:17 60° ENE 20:20:36 10° N
CZ-2D R/B 3.5 20:15:35 36° ESE 20:16:38 45° ENE 20:20:22 10° N
Helios 1B rocket 2.8 20:19:37 10° N 20:23:43 66° WNW 20:27:47 10° SSW
Nadezhda 4 Rocket 4.0 20:17:55 10° N 20:24:13 87° W 20:30:25 10° S
Abrixas 2.8 20:23:45 10° WSW 20:26:43 57° NNW 20:26:59 54° N
H-2A R/B 2.7 20:28:07 50° SE 20:28:54 64° ENE 20:32:45 10° N
GP-B 3.3 20:26:08 10° NNE 20:30:26 47° E 20:30:36 47° E
SeaSat 1 4.4 20:34:29 14° S 20:34:29 14° S 20:35:15 10° S
CZ-4B DEB 2.7 20:31:56 72° S 20:32:13 86° WSW 20:35:30 10° NNW
Cosmos 1092 Rocket 3.8 20:26:59 10° N 20:33:13 81° E 20:39:22 10° S
ERS-1 Rocket 4.0 20:35:36 28° NE 20:35:36 28° NE 20:39:12 10° N
GPS 2-04 Rocket1 3.7 20:34:10 10° WSW 20:36:40 29° SSW 20:36:40 29° SSW
Gbstr 26 Del rocket 3.2 20:33:44 10° SW 20:38:11 74° SE 20:39:48 43° ENE
Cosmos 1655 Rocket 4.2 20:33:24 10° N 20:39:22 46° ENE 20:40:32 41° ESE
Cosmos 1943 Rocket 3.0 20:34:30 10° N 20:39:32 32° ENE 20:39:37 32° ENE
Cosmos 2142 Rocket 4.4 20:34:36 10° S 20:40:55 67° E 20:47:16 10° NNE
Meteor 1-29 4.3 20:38:06 10° N 20:41:25 40° WNW 20:44:43 10° SW
Cosmos 2369 Rocket 2.1 20:37:44 10° NNW 20:43:25 77° ENE 20:45:20 43° SE
Cosmos 1943 3.0 20:38:34 10° SSW 20:44:12 82° ESE 20:49:51 10° NNE
Cosmos 2026 Rocket 4.0 20:39:22 10° N 20:45:22 56° E 20:46:55 44° SE
Cosmos 1110 Rocket 4.2 20:40:46 10° N 20:45:56 50° ENE 20:46:09 50° ENE
Cosmos 1634 Rocket 3.8 20:42:32 10° S 20:48:47 82° E 20:55:01 10° N
Cosmos 2058 4.3 20:45:48 10° N 20:47:52 26° NNE 20:47:52 26° NNE
Cosmos 2151 3.1 20:48:28 10° N 20:52:06 63° NNE 20:52:06 63° NNE
Cosmos 2263 4.2 20:47:06 10° NNW 20:52:53 66° ENE 20:53:42 58° ESE
Cosmos 1733 3.8 20:50:49 10° SSW 20:54:37 56° W 20:58:26 10° N
Cosmos 1470 3.9 20:52:54 10° SSW 20:56:36 43° W 21:00:19 10° N
OAO 3 Rocket 4.4 20:53:13 10° WSW 20:57:20 30° SSW 20:57:20 30° SSW
Cosmos 839 Rocket 4.1 20:54:12 10° NNW 21:01:51 89° ENE 21:03:47 50° SSE
ASTEX 1 4.3 20:59:29 10° N 21:04:12 48° W 21:08:53 10° SSW
Cosmos 1674 4.5 21:00:59 10° NNW 21:04:27 31° W 21:06:20 20° SW
Cosmos 2195 Rocket 4.5 21:01:09 10° N 21:07:30 86° W 21:10:05 39° S
Meteor 2-1 Rocket 4.4 21:16:32 64° NNE 21:16:32 64° NNE 21:21:33 10° NNE
Cosmos 1331 Rocket 4.2 21:12:49 10° NNW 21:17:26 67° N 21:17:26 67° N
CENTAUR R/B 2.9 21:13:59 10° SW 21:20:00 61° NW 21:26:49 10° NNE
ALOS 4.2 21:20:32 13° SSW 21:23:53 27° W 21:27:50 10° NW
Meteor 1-16 Rocket 4.4 21:22:42 47° SW 21:24:02 64° W 21:29:21 10° N
ISS 0.0 21:26:52 10° W 21:27:25 13° WNW 21:27:25 13° WNW
SL-24 R/B - RUBIN 2 4.4 21:27:26 10° NW 21:33:48 80° WNW 21:33:48 80° WNW
Envisat 4.2 21:42:35 38° NNW 21:42:35 38° NNW 21:45:41 10° NNW
USA 215 4.3 21:53:08 24° NNE 21:56:28 41° NNW 22:02:29 10° W
Cosmos 1943 Rocket 4.0 22:18:12 10° NW 22:21:10 27° WNW 22:21:10 27° WNW
CZ-3A R/B 4.3 21:58:41 10° SW 22:27:53 81° SSW 22:27:53 81° SSW
